DTUSAT

Satellite information

Favourite Embed

Satellite Type and Status

PAYLOADIN ORBIT

Key statistics

Satellite DTUSAT at a glance.

Uptime

8041

Days in orbit

Revolutions

≈ 14.2

Per day

Orbit

SSO

Sun Synchronous Orbit

Inclination

98.7

Latest

Satellite identification and parameters

Extended collection of information and parameters for DTUSAT.

Object identification

Identified? True

Debris? False

Object name: DTUSAT

International designator: 2003-031C

Object number (NORAD): 27842

Object ID (CCSDS): 27842

Country: DENMARK (DEN)

Current information (Y/N): Y

RCS size: SMALL

Orbital parameters

Period: 101.147 minutes

Inclination: 98.6862 deg

SMA: 7191.091 km

Apoapsis: 820.547 km

Periapsis: 805.365 km

RAAN: 193.2228 deg

Eccentricy: 0.0010556

Argument of periapsis: 91.015 deg

Mean anomaly: 269.2238 deg

Mean motion: 14.23674028 rev/day

Mean motion (dot): 0.00000195 rev/day2

B* drag term: 0.00010476 1/REarth

Two-line elements (TLE)

Creation date: July 4, 2025, 6:39 p.m.

Reference frame: TEME

Reference center: EARTH

Epoch: July 4, 2025, 2:14 p.m. UTC

TLE line 0: 0 DTUSAT

TLE line 1: 1 27842U 03031C 25185.59343302 .00000195 00000-0 10476-3 0 9996

TLE line 2: 2 27842 98.6862 193.2228 0010556 91.0150 269.2238 14.23674028142358

Live tracking on map

Real-time ground track for satellite DTUSAT.

In-orbit conjunctions

A list of the most updated potential collisions computed for object DTUSAT.

Target Orbit TCA Probability of collision Miss distance Type
DELTA 1 DEB SSO 2025-05-29 18:26:31 0.002524826 126.0 (m) DEBRIS
CZ-6A DEB LEO 2025-05-28 19:33:04 0.0003517498 642.0 (m) DEBRIS
PEGASUS DEB LEO 2025-05-22 23:05:39 0.0002184941 305.0 (m) DEBRIS
DMSP 5D-2 F13 DEB SSO 2025-04-23 02:45:26 0.0001379523 485.0 (m) DEBRIS
FENGYUN 1C DEB SSO 2025-02-25 00:07:04 0.002817415 21.0 (m) DEBRIS

Associated space launch

MIMOSA (Micro Measurements Of Satellite Acceleration) is a microsatellite to measure atmospheric drag.

DTUSAT was lifted into orbit during the mission ‘Rokot / Briz-KM | Mimosa’, on board a Rokot/Briz-KM space rocket.

The launch took place on June 30, 2003, 2:15 p.m. from 133/3 (133L).

For more information about the launch, click the button.

Launch to space Rokot / Briz-KM | Mimosa
Rokot / Briz-KM | Mimosa

Agency: N/A

Status: Launch Successful

Launch date: June 30, 2003, 2:15 p.m. UTC

Rocket: Rokot/Briz-KM

Launch pad: 133/3 (133L)

Location: Plesetsk Cosmodrome, Russian Federation

...

Latest news about this satellite

There are no fresh news available about this satellite. Check back as we update our databases every day.


Newsletter sign-up

Weekly statistics, charts and insights to help you stay on top of the space industry.